This is the latest recevied weather packets stored in our database for station/object W5COG. If no packets are shown the sender has not sent any weather packets the latest 1 day(s).
| Time | Temp. | Humidity | Pressure | Rain* | Wind** | Luminosity | Snow |
|---|---|---|---|---|---|---|---|
| 1778017527 | 11.11° C | 67% | 1008.8 hPa | 0 mm | 3.13 m/s, 46° | 75 W/m² | - |
| 1778017228 | 11.67° C | 67% | 1008.7 hPa | 0 mm | 2.24 m/s, 21° | 68 W/m² | - |
| 1778016928 | 11.67° C | 67% | 1008.6 hPa | 0 mm | 1.79 m/s, 17° | 96 W/m² | - |
| 1778016628 | 11.67° C | 67% | 1008.3 hPa | 0 mm | 2.24 m/s, 30° | 116 W/m² | - |
| 1778016328 | 11.67° C | 67% | 1008.2 hPa | 0 mm | 2.68 m/s, 44° | 125 W/m² | - |
| 1778016028 | 11.67° C | 68% | 1008.1 hPa | 0 mm | 2.24 m/s, 44° | 139 W/m² | - |
| 1778015728 | 11.67° C | 68% | 1008.4 hPa | 0 mm | 2.24 m/s, 47° | 136 W/m² | - |
| 1778015428 | 11.67° C | 67% | 1008.4 hPa | 0 mm | 2.68 m/s, 38° | 132 W/m² | - |
| 1778015128 | 11.67° C | 68% | 1008.5 hPa | 0 mm | 2.24 m/s, 33° | 128 W/m² | - |
| 1778014829 | 11.67° C | 68% | 1008.4 hPa | 0 mm | 2.68 m/s, 28° | 108 W/m² | - |
| 1778014528 | 11.67° C | 70% | 1008 hPa | 0 mm | 2.24 m/s, 46° | 117 W/m² | - |
| 1778014228 | 11.67° C | 70% | 1008 hPa | 0 mm | 2.24 m/s, 57° | 111 W/m² | - |
| 1778013928 | 11.67° C | 69% | 1008.1 hPa | 0 mm | 2.68 m/s, 48° | 112 W/m² | - |
| 1778013628 | 11.67° C | 68% | 1008.1 hPa | 0 mm | 2.24 m/s, 44° | 121 W/m² | - |
| 1778013328 | 12.22° C | 68% | 1008.1 hPa | 0 mm | 2.68 m/s, 41° | 131 W/m² | - |
| 1778013028 | 12.22° C | 68% | 1008.1 hPa | 0 mm | 2.24 m/s, 40° | 128 W/m² | - |
| 1778012728 | 12.22° C | 67% | 1008.1 hPa | 0 mm | 1.79 m/s, 37° | 149 W/m² | - |
| 1778012428 | 12.22° C | 70% | 1008.1 hPa | 0 mm | 2.68 m/s, 37° | 140 W/m² | - |
| 1778012128 | 12.22° C | 69% | 1008 hPa | 0 mm | 3.13 m/s, 48° | 125 W/m² | - |
| 1778011827 | 12.22° C | 69% | 1007.8 hPa | 0 mm | 2.24 m/s, 25° | 128 W/m² | - |
| 1778011527 | 12.22° C | 69% | 1008 hPa | 0 mm | 1.79 m/s, 37° | 117 W/m² | - |
| 1778011228 | 12.22° C | 71% | 1008 hPa | 0 mm | 1.79 m/s, 44° | 87 W/m² | - |
| 1778010928 | 11.67° C | 71% | 1008.1 hPa | 0 mm | 2.24 m/s, 40° | 94 W/m² | - |
| 1778010627 | 11.67° C | 70% | 1008.1 hPa | 0 mm | 2.68 m/s, 38° | 112 W/m² | - |
| 1778010327 | 12.22° C | 70% | 1008.2 hPa | 0 mm | 2.24 m/s, 40° | 86 W/m² | - |
* Rain latest hour (hover to see other rain measurements)
** Current wind speed in m/s (hover to see current wind gust speed)